Galveston, TX

8:38 AM CDT on March 29, 2017 (GMT -0500)
Scholes International At Galveston

Weather History for KGLS - May, 2013

Change the Weather History Date:

Wednesday, May 8, 2013

  Actual Average Record
Temperature  
Mean Temperature 74 °F 76 °F  
Max Temperature 79 °F 81 °F 87 °F (1956)
Min Temperature 69 °F 71 °F 54 °F (1917)
Degree Days  
Heating Degree Days 0 0  
Month to date heating degree days 6 0  
Since 1 July heating degree days 751 1009  
Cooling Degree Days 9 11  
Month to date cooling degree days 32 80  
Year to date cooling degree days 266 323  
Growing Degree Days 24 (Base 50)    
Moisture  
Dew Point 66 °F    
Average Humidity 80    
Maximum Humidity 90    
Minimum Humidity 69    
Precipitation  
Precipitation 0.00 in 0.13 in 3.02 in (1885)
Month to date precipitation 0.00 1.07  
Year to date precipitation 13.60 14.05  
Snow  
Snow 0.00 in - - ()
Month to date snowfall 0.0  
Since 1 July snowfall 0.0 0.0  
Snow Depth 0.00 in    
Sea Level Pressure  
Sea Level Pressure 30.03 in    
Wind  
Wind Speed 13 mph (SSE)    
Max Wind Speed 21 mph    
Max Gust Speed 25 mph    
Visibility 10 miles    
Events      
T = Trace of Precipitation, MM = Missing Value Source: NWS Daily Summary

Daily Weather History Graph

Daily Weather History Graph

Search for Another Location

Airport or City:

Trip Planner

Search our weather history database for the weather conditions in past years. The results will help you decide how hot, cold, wet, or windy it might be!

Date:

Astronomy

May. 08, 2013 Rise Set
Actual Time 6:31 AM CDT 8:00 PM CDT
Civil Twilight 6:06 AM CDT 8:25 PM CDT
Nautical Twilight 5:35 AM CDT 8:56 PM CDT
Astronomical Twilight 5:04 AM CDT 9:28 PM CDT
Moon 5:34 AM CDT (5/8) 7:02 PM CDT (5/8)
Length of Visible Light 14h 19m
Length of Day
13h 28m
Waning Crescent, 2% of the Moon is Illuminated
May 8
Waning Crescent
May 9
New
May 17
First Quarter
May 24
Full
May 31
Last Quarter

Hourly Weather History & Observations

Time (CDT) Temp. Dew Point Humidity Pressure Visibility Wind Dir Wind Speed Gust Speed Precip Events Conditions
12:52 AM 70.0 °F 63.0 °F 78% 30.04 in 10.0 mi South 10.4 mph - N/A   Clear
1:52 AM 70.0 °F 64.0 °F 81% 30.02 in 10.0 mi South 11.5 mph - N/A   Clear
2:52 AM 70.0 °F 64.0 °F 81% 30.01 in 10.0 mi South 11.5 mph - N/A   Clear
3:52 AM 70.0 °F 63.0 °F 78% 30.01 in 10.0 mi South 9.2 mph - N/A   Clear
4:52 AM 69.1 °F 63.0 °F 81% 30.00 in 10.0 mi South 10.4 mph - N/A   Clear
5:52 AM 70.0 °F 64.0 °F 81% 30.01 in 10.0 mi South 8.1 mph - N/A   Clear
6:52 AM 69.1 °F 64.0 °F 84% 30.03 in 10.0 mi SSE 11.5 mph - N/A   Clear
7:52 AM 71.1 °F 66.0 °F 84% 30.05 in 10.0 mi South 11.5 mph - N/A   Clear
8:42 AM 73.4 °F 66.2 °F 78% 30.06 in 10.0 mi SSE 13.8 mph - N/A   Mostly Cloudy
8:52 AM 73.0 °F 66.0 °F 79% 30.06 in 10.0 mi South 12.7 mph - N/A   Mostly Cloudy
8:59 AM 73.4 °F 66.2 °F 78% 30.07 in 10.0 mi SSE 11.5 mph - N/A   Scattered Clouds
9:52 AM 75.0 °F 66.9 °F 76% 30.09 in 10.0 mi SSE 12.7 mph - N/A   Scattered Clouds
10:52 AM 75.9 °F 66.9 °F 74% 30.10 in 10.0 mi South 11.5 mph - N/A   Scattered Clouds
11:52 AM 77.0 °F 66.9 °F 71% 30.09 in 10.0 mi SSE 12.7 mph - N/A   Clear
12:52 PM 77.0 °F 68.0 °F 74% 30.08 in 10.0 mi South 12.7 mph - N/A   Scattered Clouds
1:52 PM 77.0 °F 68.0 °F 74% 30.06 in 10.0 mi SSE 12.7 mph - N/A   Scattered Clouds
2:52 PM 78.1 °F 68.0 °F 71% 30.05 in 10.0 mi SSE 11.5 mph - N/A   Scattered Clouds
3:52 PM 77.0 °F 66.9 °F 71% 30.04 in 10.0 mi South 13.8 mph - N/A   Scattered Clouds
4:52 PM 77.0 °F 66.9 °F 71% 30.02 in 10.0 mi SSE 16.1 mph - N/A   Scattered Clouds
5:52 PM 75.9 °F 66.0 °F 71% 30.00 in 10.0 mi SE 16.1 mph - N/A   Partly Cloudy
6:24 PM 75.2 °F 66.2 °F 73% 30.00 in 10.0 mi SE 15.0 mph - N/A   Mostly Cloudy
6:52 PM 73.9 °F 66.0 °F 76% 30.00 in 10.0 mi SE 15.0 mph - N/A   Scattered Clouds
7:52 PM 72.0 °F 66.0 °F 81% 30.01 in 10.0 mi SSE 12.7 mph - N/A   Scattered Clouds
8:52 PM 72.0 °F 66.9 °F 84% 30.01 in 10.0 mi SE 10.4 mph - N/A   Scattered Clouds
9:15 PM 71.6 °F 66.2 °F 83% 30.01 in 10.0 mi SE 13.8 mph - N/A   Mostly Cloudy
9:52 PM 73.0 °F 66.9 °F 81% 30.01 in 10.0 mi SE 15.0 mph - N/A   Scattered Clouds
10:52 PM 71.1 °F 68.0 °F 90% 30.01 in 10.0 mi SE 16.1 mph - N/A   Mostly Cloudy
11:52 PM 71.1 °F 68.0 °F 90% 30.00 in 10.0 mi SE 16.1 mph 25.3 mph N/A   Mostly Cloudy